{"data":{"norad_id":67800,"intl_designator":"2026-032D","name":"STARLINK-36354","alt_names":[],"object_type":"PAYLOAD","status":"ACTIVE","operator":null,"country":"US","launch_date":"2026-02-15","launch_site_code":"AFWTR","launch_vehicle":null,"mission":null,"orbit_class":"UNKNOWN","rcs_meters":null,"size_class":null,"mass_kg":null,"dimensions":null,"purposes":["comms"],"wikipedia_slug":null,"has_3d_model":false,"image_url":null,"decayed_at":null,"tle_current":{"epoch":"2026-05-25T01:44:04.971264Z","epoch_age_seconds":68882,"freshness":"FRESH","line1":"1 67800U 26032D   26145.07227976  .00011672  00000+0  36319-3 0  9993","line2":"2 67800  97.2862 333.1234 0001808  85.7497 274.3953 15.33454906 16665","mean_motion":15.33454906,"eccentricity":0.0001808,"inclination_deg":97.2862,"raan_deg":333.1234,"arg_perigee_deg":85.7497,"mean_anomaly_deg":274.3953,"bstar":0.00036319,"rev_number":1666,"period_min":93.905598030021,"perigee_km":464.27636930345,"apogee_km":466.75103339706,"semimajor_km":6843.6507013503,"source":"CELESTRAK","updated_at":"2026-05-25T13:38:21.692423Z"}}}